TimeEST,TemperatureF,Dew PointF,Humidity,Sea Level PressureIn,VisibilityMPH,Wind Direction,Wind SpeedMPH,Gust SpeedMPH,PrecipitationIn,Events,Conditions,WindDirDegrees,DateUTC
12:15 AM,33.8,30.2,87,30.21,3.0,ESE,9.2,-,N/A,,Overcast,120,2013-01-28 05:15:00
12:35 AM,34.2,30.6,87,30.21,2.5,SE,6.9,-,N/A,,Overcast,140,2013-01-28 05:35:00
12:55 AM,34.2,31.1,89,30.20,2.5,SE,6.9,-,N/A,,Overcast,140,2013-01-28 05:55:00
1:15 AM,34.0,30.9,89,30.18,2.5,SE,6.9,-,N/A,,Overcast,140,2013-01-28 06:15:00
1:35 AM,34.0,31.1,89,30.18,3.0,SE,6.9,-,N/A,,Overcast,140,2013-01-28 06:35:00
1:55 AM,33.8,31.1,90,30.16,2.0,SE,6.9,-,N/A,,Overcast,140,2013-01-28 06:55:00
2:15 AM,34.0,31.3,90,30.15,3.0,SE,8.1,-,N/A,,Overcast,140,2013-01-28 07:15:00
2:35 AM,34.7,31.8,89,30.15,4.0,SSE,8.1,-,N/A,,Overcast,150,2013-01-28 07:35:00
2:55 AM,35.6,32.0,87,30.16,5.0,South,6.9,-,N/A,Rain,Light Rain,180,2013-01-28 07:55:00
3:15 AM,35.8,32.2,87,30.16,7.0,South,9.2,-,N/A,,Overcast,180,2013-01-28 08:15:00
3:35 AM,35.6,32.0,87,30.15,5.0,South,8.1,-,N/A,,Overcast,180,2013-01-28 08:35:00
3:55 AM,35.4,32.0,87,30.15,5.0,South,5.8,-,N/A,,Overcast,180,2013-01-28 08:55:00
4:15 AM,35.4,32.0,87,30.14,4.0,SSE,4.6,-,N/A,,Light Drizzle,160,2013-01-28 09:15:00
4:35 AM,35.1,32.0,89,30.13,3.0,SSE,6.9,-,N/A,,Overcast,160,2013-01-28 09:35:00
4:55 AM,35.2,32.2,89,30.11,3.0,South,9.2,-,N/A,,Overcast,170,2013-01-28 09:55:00
5:15 AM,36.0,32.9,89,30.11,4.0,South,9.2,-,N/A,,Overcast,180,2013-01-28 10:15:00
5:35 AM,36.5,33.3,88,30.10,4.0,South,11.5,-,N/A,Rain,Light Rain,190,2013-01-28 10:35:00
5:55 AM,36.7,33.6,89,30.10,5.0,South,11.5,-,N/A,Rain,Light Rain,180,2013-01-28 10:55:00
6:15 AM,37.2,34.0,88,30.10,5.0,South,9.2,-,N/A,,Light Drizzle,180,2013-01-28 11:15:00
6:35 AM,37.8,34.3,87,30.10,5.0,South,9.2,-,N/A,,Light Drizzle,180,2013-01-28 11:35:00
6:55 AM,38.3,34.7,87,30.09,7.0,South,10.4,-,N/A,Rain,Light Rain,180,2013-01-28 11:55:00
7:15 AM,38.7,35.1,87,30.08,7.0,South,10.4,-,N/A,,Overcast,180,2013-01-28 12:15:00
7:35 AM,39.2,35.4,86,30.08,7.0,South,11.5,-,N/A,,Mostly Cloudy,180,2013-01-28 12:35:00
7:55 AM,40.1,35.8,85,30.07,10.0,South,10.4,-,N/A,,Mostly Cloudy,190,2013-01-28 12:55:00
8:15 AM,41.0,36.3,83,30.08,10.0,South,9.2,-,N/A,,Overcast,190,2013-01-28 13:15:00
8:35 AM,41.5,36.7,83,30.08,10.0,South,6.9,-,N/A,,Overcast,190,2013-01-28 13:35:00
8:55 AM,41.9,37.0,83,30.07,10.0,South,8.1,-,N/A,,Overcast,190,2013-01-28 13:55:00
9:15 AM,42.8,37.6,82,30.07,10.0,SSW,9.2,-,N/A,,Overcast,200,2013-01-28 14:15:00
9:35 AM,43.9,38.5,81,30.08,10.0,SW,8.1,-,N/A,Rain,Light Rain,220,2013-01-28 14:35:00
9:55 AM,44.4,39.0,81,30.08,4.0,SSW,9.2,-,N/A,Rain,Rain,210,2013-01-28 14:55:00
10:15 AM,44.2,39.6,84,30.08,5.0,SSW,8.1,-,N/A,Rain,Rain,200,2013-01-28 15:15:00
10:35 AM,44.1,39.9,85,30.08,7.0,South,8.1,-,N/A,Rain,Rain,190,2013-01-28 15:35:00
10:55 AM,44.4,40.1,85,30.09,7.0,SSW,8.1,-,N/A,Rain,Light Rain,200,2013-01-28 15:55:00
11:15 AM,44.4,40.3,85,30.09,5.0,South,9.2,-,N/A,Rain,Light Rain,190,2013-01-28 16:15:00
11:35 AM,44.4,40.5,86,30.08,7.0,South,10.4,-,N/A,Rain,Light Rain,190,2013-01-28 16:35:00
11:55 AM,44.6,40.8,87,30.08,7.0,SSW,9.2,-,N/A,,Overcast,210,2013-01-28 16:55:00
12:15 PM,45.3,41.2,85,30.06,7.0,SSW,9.2,-,N/A,,Overcast,200,2013-01-28 17:15:00
12:35 PM,45.9,41.9,86,30.06,7.0,SSW,10.4,-,N/A,,Drizzle,200,2013-01-28 17:35:00
12:55 PM,46.6,42.4,85,30.05,7.0,SSW,12.7,-,N/A,,Overcast,200,2013-01-28 17:55:00
1:35 PM,48.0,43.3,84,30.03,10.0,SSW,12.7,-,N/A,,Overcast,210,2013-01-28 18:35:00
1:55 PM,48.7,44.1,84,30.03,10.0,SSW,11.5,-,N/A,,Overcast,210,2013-01-28 18:55:00
2:15 PM,49.1,44.2,83,30.03,7.0,SW,11.5,-,N/A,,Overcast,220,2013-01-28 19:15:00
2:35 PM,48.7,44.2,84,30.02,7.0,SW,8.1,-,N/A,,Light Drizzle,220,2013-01-28 19:35:00
2:55 PM,48.9,44.8,86,30.02,7.0,SSW,12.7,19.6,N/A,,Overcast,210,2013-01-28 19:55:00
3:15 PM,49.8,45.3,84,30.02,7.0,SW,11.5,19.6,N/A,,Overcast,220,2013-01-28 20:15:00
3:35 PM,50.4,45.7,84,30.02,10.0,SSW,12.7,-,N/A,,Overcast,210,2013-01-28 20:35:00
3:55 PM,50.2,45.5,84,30.02,10.0,SSW,15.0,-,N/A,,Overcast,210,2013-01-28 20:55:00
4:15 PM,50.0,45.5,85,30.02,10.0,SSW,15.0,-,N/A,,Overcast,210,2013-01-28 21:15:00
4:35 PM,50.0,45.5,85,30.02,10.0,SSW,13.8,-,N/A,,Overcast,210,2013-01-28 21:35:00
4:55 PM,50.0,45.5,85,30.03,10.0,SSW,10.4,-,N/A,,Overcast,210,2013-01-28 21:55:00
5:15 PM,49.5,45.1,85,30.04,7.0,SW,10.4,-,N/A,,Overcast,220,2013-01-28 22:15:00
5:35 PM,49.3,45.1,86,30.04,7.0,SW,10.4,-,N/A,,Overcast,220,2013-01-28 22:35:00
5:55 PM,49.1,45.0,86,30.04,7.0,SW,9.2,-,N/A,,Overcast,220,2013-01-28 22:55:00
6:15 PM,48.7,44.6,86,30.05,5.0,SW,8.1,-,N/A,,Overcast,220,2013-01-28 23:15:00
6:35 PM,48.4,44.6,87,30.05,5.0,SW,9.2,-,N/A,,Overcast,220,2013-01-28 23:35:00
6:55 PM,48.4,44.6,87,30.06,5.0,SW,9.2,-,N/A,,Overcast,220,2013-01-28 23:55:00
7:15 PM,48.2,44.6,87,30.06,5.0,SW,9.2,-,N/A,,Overcast,220,2013-01-29 00:15:00
7:35 PM,48.2,44.6,87,30.05,7.0,SW,9.2,-,N/A,,Overcast,220,2013-01-29 00:35:00
7:55 PM,48.0,44.2,87,30.06,5.0,SW,9.2,-,N/A,,Overcast,220,2013-01-29 00:55:00
8:15 PM,47.5,43.9,87,30.06,4.0,SW,10.4,-,N/A,,Overcast,220,2013-01-29 01:15:00
8:35 PM,47.1,43.7,88,30.05,4.0,SW,12.7,-,N/A,,Overcast,220,2013-01-29 01:35:00
8:55 PM,47.3,43.9,88,30.05,4.0,SW,11.5,-,N/A,,Overcast,220,2013-01-29 01:55:00
9:15 PM,47.3,44.1,88,30.05,3.0,SW,10.4,-,N/A,,Overcast,220,2013-01-29 02:15:00
9:35 PM,47.3,44.1,88,30.05,3.0,SW,11.5,-,N/A,,Overcast,220,2013-01-29 02:35:00
9:55 PM,47.3,44.1,88,30.05,4.0,SW,10.4,-,N/A,,Overcast,220,2013-01-29 02:55:00
10:15 PM,47.3,44.1,88,30.05,4.0,SW,9.2,-,N/A,,Overcast,220,2013-01-29 03:15:00
10:35 PM,47.3,44.1,88,30.05,3.0,SW,9.2,-,N/A,Rain,Light Rain,220,2013-01-29 03:35:00
10:55 PM,47.3,44.2,89,30.05,3.0,SW,8.1,-,N/A,,Overcast,220,2013-01-29 03:55:00
11:15 PM,47.3,44.2,89,30.05,2.5,SW,5.8,-,N/A,,Overcast,220,2013-01-29 04:15:00
11:35 PM,47.3,44.2,89,30.05,2.5,SW,6.9,-,N/A,,Overcast,220,2013-01-29 04:35:00
11:55 PM,47.5,44.4,89,30.05,2.5,SW,6.9,-,N/A,,Overcast,220,2013-01-29 04:55:00